Content
SEND FEEDBACK

Daily
Averages
Monthly
Summary
Philippines

BAGUMBAYAN, PHILIPPINES


Home > Asia > Philippines
Elevation: 49 feet     Latitude: 14 31N     Longitude: 121 00E

WEATHER
 
SELECT A DAY
Number of Records: 172,693;   Date Range: 7/1/96 - 9/3/14
 
SHARE

PRINT THIS DATA

[ ← Previous Day ]
WEATHER ALMANAC - JANUARY 17, 2013
[ Next Day → ]
[ °C ]   °F
Weather ElementAverageHighLow
Temperature77.8 °F84.2 °F (2:00 pm)71.6 °F (5:00 am)
Dewpoint65.1 °F68 °F (8:00 am)60 °F (5:00 pm)
Humidity64.2 %83 % (5:00 am)37 % (5:00 pm)
Barometer29.97 in30.04 in (9:00 am)29.92 in (2:00 pm)
Wind Speed6.1 mph11.5 mph (3:00 pm)
Weather ElementAverage
Visibility6.1 mi
Wind DirectionSE (136.7 °)

Weather ElementTotal
Precipitation---
Cooling Degree Days12.9 (Base 65)
Growing Degree Days27.9 (Base 50)
Averaged from 30 records on January 17, 2013
WEATHER CONDITIONS BREAKOUT
WIND DIRECTION BREAKOUT
WEATHER BY HOUR - JANUARY 17, 2013
[ °C ]   °F
Local TimeTemperatureDewpointHumidityBarometerVisibilityWind DirectionWind SpeedGust SpeedPrecipitationEventsConditions
1:00 AM75.2 °F66.2 °F73 %29.95 in6.2 miESE (110°)5.8 mphPartly Cloudy
2:00 AM75.0 °F66.0 °F68 %29.95 in6.0 miESE (120°)4.5 mphHaze
2:00 AM75.2 °F66.2 °F73 %29.95 in6.2 miESE (110°)4.6 mphPartly Cloudy
3:00 AM75.2 °F66.2 °F73 %29.95 in6.2 miEast (90°)3.5 mphPartly Cloudy
4:00 AM73.4 °F66.2 °F78 %29.95 in6.2 miNE (50°)2.3 mphPartly Cloudy
5:00 AM72.0 °F66.0 °F77 %29.97 in6.0 miNorth (10°)4.5 mphHaze
5:00 AM71.6 °F66.2 °F83 %29.95 in6.2 miNorth (10°)3.5 mphPartly Cloudy
6:00 AM73.4 °F66.2 °F78 %29.98 in6.2 miNNW (340°)3.5 mphPartly Cloudy
7:00 AM73.4 °F66.2 °F78 %30.01 in6.2 miVariable2.3 mphScattered Clouds
8:00 AM75.0 °F67.0 °F71 %30.03 in6.0 miNW (320°)2.2 mphHaze
8:00 AM75.2 °F68.0 °F78 %30.01 in6.2 miNW (320°)3.5 mphScattered Clouds
9:00 AM78.8 °F66.2 °F65 %30.04 in6.2 miVariable2.3 mphScattered Clouds
10:00 AM77.0 °F66.2 °F69 %30.01 in6.2 miWNW (300°)4.6 mphMostly Cloudy
11:00 AM67.0 °F30.02 in6.0 miWest (270°)4.5 mphHaze
11:00 AM78.8 °F68.0 °F69 %30.01 in5.6 miWest (270°)5.8 mphMostly Cloudy
12:00 PM80.6 °F68.0 °F65 %29.98 in5.6 miWest (280°)8.1 mphMostly Cloudy
1:00 PM82.4 °F68.0 °F62 %29.95 in6.2 miSSW (200°)4.6 mphScattered Clouds
2:00 PM83.0 °F64.0 °F43 %29.94 in6.0 miEast (100°)8.9 mphHaze
2:00 PM84.2 °F64.4 °F51 %29.92 in5.6 miEast (100°)9.2 mphMostly Cloudy
3:00 PM84.2 °F60.8 °F45 %29.92 in6.2 miEast (80°)11.5 mphMostly Cloudy
4:00 PM84.2 °F60.8 °F45 %29.92 in6.2 miEast (80°)11.5 mphPartly Cloudy
5:00 PM82.0 °F60.0 °F37 %29.94 in6.0 miEast (80°)11.2 mphPartly Cloudy
5:00 PM82.4 °F60.8 °F48 %29.92 in6.2 miEast (80°)11.5 mphPartly Cloudy
6:00 PM80.6 °F60.8 °F51 %29.92 in6.2 miEast (80°)11.5 mphPartly Cloudy
7:00 PM78.8 °F60.8 °F54 %29.95 in6.2 miEast (90°)6.9 mphPartly Cloudy
8:00 PM78.0 °F65.0 °F55 %29.98 in6.0 miESE (120°)6.7 mphHaze
8:00 PM77.0 °F64.4 °F65 %29.98 in6.2 miESE (120°)6.9 mphPartly Cloudy
9:00 PM77.0 °F66.2 °F69 %29.98 in6.2 miSE (130°)3.5 mphPartly Cloudy
10:00 PM77.0 °F66.2 °F69 %29.98 in6.2 miSE (130°)4.6 mphPartly Cloudy
11:00 PM77.0 °F66.2 °F69 %29.98 in6.2 miESE (110°)8.1 mphScattered Clouds
Hourly data recorded from RPLL, located miles away from Bagumbayan, Philippines







STORIES FROM OUR PARTNERS